Volver al catálogo

OPS 4682 DEB

ActivoPO
NORAD 18783·DEBRIS·🇺🇸 United States

Lanzado Apr 3, 1965 desde Vandenberg Space Force Base

Loading…

Próximos Pases (próximas 24 horas)

TLE

ActualizadoSource: Space-Track

Época: Sep 14, 2026, 08:30 UTC

1 18783U 65027AK  26257.35484978  .00000874  00000-0  28429-2 0  9993
2 18783  90.2743  28.5378 0025871 329.5329  57.3589 13.00857560592078

Sigue OPS 4682 DEB en tiempo real con AllMySat

Download on the App Store